Time,TemperatureF,DewpointF,PressureIn,WindDirection,WindDirectionDegrees,WindSpeedMPH,WindSpeedGustMPH,Humidity,HourlyPrecipIn,Conditions,Clouds,dailyrainin,SoftwareType,DateUTC
2013-08-21 00:01:00,66.7,61.7,30.44,North,0,57.0,0.0,84,0.00,,CLR,0.00,VWS V13.01,2013-08-21 04:01:00,
2013-08-21 00:02:00,66.7,61.7,30.44,SE,135,57.0,0.0,84,0.00,,CLR,0.00,VWS V13.01,2013-08-21 04:02:00,
2013-08-21 00:07:00,66.7,61.7,30.44,SE,135,57.0,0.0,84,0.00,,CLR,0.00,VWS V13.01,2013-08-21 04:07:00,
2013-08-21 00:12:00,66.7,61.7,30.44,SE,135,57.0,0.0,84,0.00,,CLR,0.00,VWS V13.01,2013-08-21 04:12:00,
2013-08-21 00:17:00,66.5,61.5,30.44,SE,135,57.0,0.0,84,0.00,,CLR,0.00,VWS V13.01,2013-08-21 04:17:00,
2013-08-21 00:22:00,66.5,61.5,30.44,SE,135,57.0,0.0,84,0.00,,CLR,0.00,VWS V13.01,2013-08-21 04:22:00,
2013-08-21 00:27:00,66.3,61.5,30.45,SE,135,57.0,0.0,84,0.00,,CLR,0.00,VWS V13.01,2013-08-21 04:27:00,
2013-08-21 00:32:00,66.3,61.3,30.45,SE,135,57.0,0.0,84,0.00,,CLR,0.00,VWS V13.01,2013-08-21 04:32:00,
2013-08-21 00:37:00,66.2,61.3,30.45,SE,135,57.0,0.0,84,0.00,,CLR,0.00,VWS V13.01,2013-08-21 04:37:00,
2013-08-21 00:42:00,66.0,61.4,30.45,SE,135,57.0,0.0,85,0.00,,CLR,0.00,VWS V13.01,2013-08-21 04:42:00,
2013-08-21 00:47:00,66.0,61.4,30.45,SE,135,57.0,0.0,85,0.00,,CLR,0.00,VWS V13.01,2013-08-21 04:47:00,
2013-08-21 00:52:00,66.0,61.2,30.44,SE,135,57.0,0.0,85,0.00,,CLR,0.00,VWS V13.01,2013-08-21 04:52:00,
2013-08-21 00:57:00,65.8,61.2,30.45,SE,135,57.0,0.0,85,0.00,,CLR,0.00,VWS V13.01,2013-08-21 04:57:00,
2013-08-21 01:02:00,65.8,61.2,30.45,SE,135,57.0,0.0,85,0.00,,CLR,0.00,VWS V13.01,2013-08-21 05:02:00,
2013-08-21 01:07:00,65.8,61.0,30.45,SE,135,57.0,0.0,85,0.00,,CLR,0.00,VWS V13.01,2013-08-21 05:07:00,
2013-08-21 01:12:00,65.8,60.8,30.45,SE,135,57.0,0.0,85,0.00,,CLR,0.00,VWS V13.01,2013-08-21 05:12:00,
2013-08-21 01:17:00,65.4,60.8,30.45,SE,135,57.0,0.0,85,0.00,,CLR,0.00,VWS V13.01,2013-08-21 05:17:00,
2013-08-21 01:22:00,65.4,61.0,30.45,SE,135,57.0,0.0,85,0.00,,CLR,0.00,VWS V13.01,2013-08-21 05:22:00,
2013-08-21 01:27:00,65.4,60.8,30.44,SE,135,57.0,0.0,85,0.00,,CLR,0.00,VWS V13.01,2013-08-21 05:27:00,
2013-08-21 01:32:00,65.1,60.8,30.44,SE,135,57.0,0.0,86,0.00,,CLR,0.00,VWS V13.01,2013-08-21 05:32:00,
2013-08-21 01:37:00,65.1,60.8,30.44,SE,135,57.0,0.0,86,0.00,,CLR,0.00,VWS V13.01,2013-08-21 05:37:00,
2013-08-21 01:42:00,65.1,60.8,30.45,SE,135,57.0,0.0,86,0.00,,CLR,0.00,VWS V13.01,2013-08-21 05:42:00,
2013-08-21 01:47:00,65.1,60.6,30.44,North,0,57.0,0.0,86,0.00,,CLR,0.00,VWS V13.01,2013-08-21 05:47:00,
2013-08-21 01:52:00,65.1,60.6,30.44,SE,135,57.0,0.0,86,0.00,,CLR,0.00,VWS V13.01,2013-08-21 05:52:00,
2013-08-21 01:57:00,64.9,60.6,30.44,SE,135,57.0,0.0,86,0.00,,CLR,0.00,VWS V13.01,2013-08-21 05:57:00,
2013-08-21 02:02:00,64.9,60.6,30.44,SE,135,57.0,0.0,86,0.00,,,0.00,VWS V13.01,2013-08-21 06:02:00,
2013-08-21 02:07:00,64.9,60.9,30.44,SE,135,57.0,0.0,86,0.00,,,0.00,VWS V13.01,2013-08-21 06:07:00,
2013-08-21 02:12:00,64.9,60.9,30.45,SE,135,57.0,0.0,86,0.00,,,0.00,VWS V13.01,2013-08-21 06:12:00,
2013-08-21 02:17:00,64.7,60.5,30.45,SE,135,57.0,0.0,87,0.00,,,0.00,VWS V13.01,2013-08-21 06:17:00,
2013-08-21 02:22:00,64.5,60.5,30.44,SE,135,57.0,0.0,87,0.00,,,0.00,VWS V13.01,2013-08-21 06:22:00,
2013-08-21 02:27:00,64.5,60.5,30.44,North,0,57.0,0.0,87,0.00,,,0.00,VWS V13.01,2013-08-21 06:27:00,
2013-08-21 02:32:00,64.5,60.5,30.44,SE,135,57.0,0.0,87,0.00,,,0.00,VWS V13.01,2013-08-21 06:32:00,
2013-08-21 02:37:00,64.5,60.5,30.44,SE,135,57.0,0.0,87,0.00,,,0.00,VWS V13.01,2013-08-21 06:37:00,
2013-08-21 02:42:00,64.5,60.5,30.44,SE,135,57.0,0.0,87,0.00,,,0.00,VWS V13.01,2013-08-21 06:42:00,
2013-08-21 02:47:00,64.5,60.5,30.44,SE,135,57.0,0.0,87,0.00,,,0.00,VWS V13.01,2013-08-21 06:47:00,
2013-08-21 02:52:00,64.5,60.5,30.44,SE,135,57.0,0.0,87,0.00,,,0.00,VWS V13.01,2013-08-21 06:52:00,
2013-08-21 02:57:00,64.5,60.5,30.44,SE,135,57.0,0.0,87,0.00,,,0.00,VWS V13.01,2013-08-21 06:57:00,
2013-08-21 03:02:00,64.4,60.3,30.44,SE,135,57.0,0.0,87,0.00,,,0.00,VWS V13.01,2013-08-21 07:02:00,
2013-08-21 03:07:00,64.4,60.3,30.44,SE,135,57.0,0.0,87,0.00,,,0.00,VWS V13.01,2013-08-21 07:07:00,
2013-08-21 03:12:00,64.4,60.3,30.44,SE,135,57.0,0.0,87,0.00,,,0.00,VWS V13.01,2013-08-21 07:12:00,
2013-08-21 03:17:00,64.2,60.3,30.44,SE,135,57.0,0.0,87,0.00,,,0.00,VWS V13.01,2013-08-21 07:17:00,
2013-08-21 03:22:00,64.2,60.3,30.44,SE,135,57.0,0.0,87,0.00,,,0.00,VWS V13.01,2013-08-21 07:22:00,
2013-08-21 03:27:00,64.0,60.1,30.43,SE,135,57.0,0.0,87,0.00,,,0.00,VWS V13.01,2013-08-21 07:27:00,
2013-08-21 03:32:00,64.0,60.1,30.43,SE,135,57.0,0.0,87,0.00,,,0.00,VWS V13.01,2013-08-21 07:32:00,
2013-08-21 03:37:00,64.0,60.1,30.43,SE,135,57.0,0.0,87,0.00,,,0.00,VWS V13.01,2013-08-21 07:37:00,
2013-08-21 03:42:00,64.0,60.1,30.43,SE,135,57.0,0.0,87,0.00,,,0.00,VWS V13.01,2013-08-21 07:42:00,
2013-08-21 03:47:00,64.0,60.1,30.43,SE,135,57.0,0.0,87,0.00,,,0.00,VWS V13.01,2013-08-21 07:47:00,
2013-08-21 03:52:00,64.0,60.1,30.43,SE,135,57.0,0.0,87,0.00,,,0.00,VWS V13.01,2013-08-21 07:52:00,
2013-08-21 03:57:00,64.0,60.1,30.43,SE,135,57.0,0.0,87,0.00,,,0.00,VWS V13.01,2013-08-21 07:57:00,
2013-08-21 04:02:00,64.0,59.9,30.43,SE,135,57.0,0.0,87,0.00,,,0.00,VWS V13.01,2013-08-21 08:02:00,
2013-08-21 04:07:00,64.0,59.9,30.43,SE,135,57.0,0.0,87,0.00,,,0.00,VWS V13.01,2013-08-21 08:07:00,
2013-08-21 04:12:00,63.8,60.2,30.43,SE,135,57.0,0.0,87,0.00,,,0.00,VWS V13.01,2013-08-21 08:12:00,
2013-08-21 04:17:00,63.8,60.0,30.43,SE,135,57.0,0.0,87,0.00,,,0.00,VWS V13.01,2013-08-21 08:17:00,
2013-08-21 04:22:00,63.6,60.0,30.43,SE,135,57.0,0.0,88,0.00,,,0.00,VWS V13.01,2013-08-21 08:22:00,
2013-08-21 04:27:00,63.6,60.0,30.42,North,0,57.0,0.0,88,0.00,,,0.00,VWS V13.01,2013-08-21 08:27:00,
2013-08-21 04:32:00,63.6,60.0,30.42,SE,135,57.0,0.0,88,0.00,,,0.00,VWS V13.01,2013-08-21 08:32:00,
2013-08-21 04:37:00,63.6,60.0,30.42,SE,135,57.0,0.0,88,0.00,,,0.00,VWS V13.01,2013-08-21 08:37:00,
2013-08-21 04:42:00,63.6,60.0,30.42,SE,135,57.0,0.0,88,0.00,,,0.00,VWS V13.01,2013-08-21 08:42:00,
2013-08-21 04:47:00,63.6,60.0,30.43,SE,135,57.0,0.0,88,0.00,,,0.00,VWS V13.01,2013-08-21 08:47:00,
2013-08-21 04:52:00,63.6,60.0,30.43,SE,135,57.0,0.0,88,0.00,,,0.00,VWS V13.01,2013-08-21 08:52:00,
2013-08-21 04:57:00,63.6,60.0,30.43,SE,135,57.0,0.0,88,0.00,,,0.00,VWS V13.01,2013-08-21 08:57:00,
2013-08-21 05:02:00,63.6,60.0,30.42,SE,135,57.0,0.0,88,0.00,,,0.00,VWS V13.01,2013-08-21 09:02:00,
2013-08-21 05:07:00,63.6,60.0,30.43,SE,135,57.0,0.0,88,0.00,,,0.00,VWS V13.01,2013-08-21 09:07:00,
2013-08-21 05:12:00,63.6,60.0,30.43,SE,135,57.0,0.0,88,0.00,,,0.00,VWS V13.01,2013-08-21 09:12:00,
2013-08-21 05:17:00,63.6,60.0,30.43,SE,135,57.0,0.0,88,0.00,,,0.00,VWS V13.01,2013-08-21 09:17:00,
2013-08-21 05:22:00,63.6,60.0,30.43,SE,135,57.0,0.0,88,0.00,,,0.00,VWS V13.01,2013-08-21 09:22:00,
2013-08-21 05:27:00,63.6,60.0,30.43,SE,135,57.0,0.0,88,0.00,,,0.00,VWS V13.01,2013-08-21 09:27:00,
2013-08-21 05:32:00,63.6,60.0,30.43,SE,135,57.0,0.0,88,0.00,,,0.00,VWS V13.01,2013-08-21 09:32:00,
2013-08-21 05:37:00,63.6,60.0,30.43,SE,135,57.0,0.0,88,0.00,,,0.00,VWS V13.01,2013-08-21 09:37:00,
2013-08-21 05:42:00,63.6,60.0,30.43,SE,135,57.0,0.0,88,0.00,,,0.00,VWS V13.01,2013-08-21 09:42:00,
2013-08-21 05:47:00,63.6,60.0,30.43,SE,135,57.0,0.0,88,0.00,,,0.00,VWS V13.01,2013-08-21 09:47:00,
2013-08-21 05:52:00,63.6,60.0,30.43,SE,135,57.0,0.0,88,0.00,,,0.00,VWS V13.01,2013-08-21 09:52:00,
2013-08-21 05:57:00,63.6,60.3,30.43,SE,135,57.0,0.0,88,0.00,,,0.00,VWS V13.01,2013-08-21 09:57:00,
2013-08-21 06:02:00,63.6,60.3,30.43,SE,135,57.0,0.0,89,0.00,,,0.00,VWS V13.01,2013-08-21 10:02:00,
2013-08-21 06:07:00,63.6,60.0,30.43,SE,135,57.0,0.0,89,0.00,,,0.00,VWS V13.01,2013-08-21 10:07:00,
2013-08-21 06:12:00,63.6,60.3,30.43,SE,135,57.0,0.0,89,0.00,,,0.00,VWS V13.01,2013-08-21 10:12:00,
2013-08-21 06:17:00,63.6,60.3,30.43,SE,135,57.0,0.0,89,0.00,,,0.00,VWS V13.01,2013-08-21 10:17:00,
2013-08-21 06:22:00,63.6,60.3,30.43,SE,135,57.0,0.0,89,0.00,,,0.00,VWS V13.01,2013-08-21 10:22:00,
2013-08-21 06:27:00,63.6,60.3,30.43,SE,135,57.0,0.0,89,0.00,,,0.00,VWS V13.01,2013-08-21 10:27:00,
2013-08-21 06:32:00,63.6,60.3,30.43,SE,135,57.0,0.0,89,0.00,,,0.00,VWS V13.01,2013-08-21 10:32:00,
2013-08-21 06:37:00,63.6,60.3,30.44,SE,135,57.0,0.0,89,0.00,,,0.00,VWS V13.01,2013-08-21 10:37:00,
2013-08-21 06:42:00,63.6,60.3,30.44,SE,135,57.0,0.0,89,0.00,,-RA,0.00,VWS V13.01,2013-08-21 10:42:00,
2013-08-21 06:47:00,63.6,60.3,30.44,North,0,57.0,0.0,89,0.00,,-RA,0.00,VWS V13.01,2013-08-21 10:47:00,
2013-08-21 06:52:00,63.6,60.3,30.45,SE,135,57.0,0.0,89,0.00,,-RA,0.00,VWS V13.01,2013-08-21 10:52:00,
2013-08-21 06:57:00,63.6,60.3,30.45,SE,135,57.0,0.0,89,0.00,,-RA,0.00,VWS V13.01,2013-08-21 10:57:00,
2013-08-21 07:02:00,63.6,60.3,30.45,SE,135,57.0,0.0,89,0.00,,OVC001,0.00,VWS V13.01,2013-08-21 11:02:00,
2013-08-21 07:07:00,63.6,60.3,30.45,SE,135,57.0,0.0,89,0.00,,OVC001,0.00,VWS V13.01,2013-08-21 11:07:00,
2013-08-21 07:12:00,63.6,60.3,30.45,SE,135,57.0,0.0,89,0.00,,OVC001,0.00,VWS V13.01,2013-08-21 11:12:00,
2013-08-21 07:17:00,63.8,60.3,30.45,SE,135,57.0,0.0,89,0.00,,OVC001,0.00,VWS V13.01,2013-08-21 11:17:00,
2013-08-21 07:22:00,63.8,60.3,30.46,SE,135,57.0,0.0,89,0.00,,OVC001,0.00,VWS V13.01,2013-08-21 11:22:00,
2013-08-21 07:27:00,63.8,60.3,30.46,SE,135,57.0,0.0,89,0.00,,OVC001,0.00,VWS V13.01,2013-08-21 11:27:00,
2013-08-21 07:32:00,63.8,60.3,100.00,SE,135,57.0,0.0,89,0.00,,OVC001,0.00,VWS V13.01,2013-08-21 11:32:00,
2013-08-21 07:37:00,63.8,60.3,30.46,SE,135,57.0,0.0,89,0.00,,OVC001,0.00,VWS V13.01,2013-08-21 11:37:00,
2013-08-21 07:42:00,63.8,60.7,30.46,SE,135,57.0,0.0,89,0.00,,,0.00,VWS V13.01,2013-08-21 11:42:00,
2013-08-21 07:47:00,64.0,60.7,30.47,SE,135,57.0,0.0,89,0.00,,,0.00,VWS V13.01,2013-08-21 11:47:00,
2013-08-21 07:52:00,64.0,60.7,30.47,SE,135,57.0,0.0,89,0.00,,,0.00,VWS V13.01,2013-08-21 11:52:00,
2013-08-21 07:57:00,64.0,60.7,30.47,SE,135,57.0,0.0,89,0.00,,,0.00,VWS V13.01,2013-08-21 11:57:00,
2013-08-21 08:02:00,64.0,60.7,30.47,SE,135,57.0,0.0,89,0.00,,,0.00,VWS V13.01,2013-08-21 12:02:00,
2013-08-21 08:07:00,64.2,60.9,30.47,SE,135,57.0,0.0,89,0.00,,,0.00,VWS V13.01,2013-08-21 12:07:00,
2013-08-21 08:12:00,64.2,60.9,30.47,SE,135,57.0,0.0,89,0.00,,,0.00,VWS V13.01,2013-08-21 12:12:00,
2013-08-21 08:17:00,64.2,60.9,30.47,SE,135,57.0,0.0,89,0.00,,,0.00,VWS V13.01,2013-08-21 12:17:00,
2013-08-21 08:22:00,64.2,60.9,30.47,SE,135,57.0,0.0,89,0.00,,,0.00,VWS V13.01,2013-08-21 12:22:00,
2013-08-21 08:27:00,64.2,61.2,30.47,SE,135,57.0,0.0,89,0.00,,,0.00,VWS V13.01,2013-08-21 12:27:00,
2013-08-21 08:32:00,64.7,61.4,30.47,SE,135,57.0,0.0,89,0.00,,,0.00,VWS V13.01,2013-08-21 12:32:00,
2013-08-21 08:37:00,64.9,61.8,30.47,SE,135,57.0,0.0,89,0.00,,,0.00,VWS V13.01,2013-08-21 12:37:00,
2013-08-21 08:42:00,64.9,62.0,30.47,SE,135,57.0,0.0,89,0.00,,,0.00,VWS V13.01,2013-08-21 12:42:00,
2013-08-21 08:47:00,65.3,62.1,30.47,SE,135,57.0,0.0,89,0.00,,,0.00,VWS V13.01,2013-08-21 12:47:00,
2013-08-21 08:52:00,65.6,62.5,30.47,North,0,57.0,0.0,89,0.00,,,0.00,VWS V13.01,2013-08-21 12:52:00,
2013-08-21 08:57:00,65.8,62.7,30.47,SE,135,57.0,0.0,89,0.00,,,0.00,VWS V13.01,2013-08-21 12:57:00,
2013-08-21 09:02:00,66.2,62.9,30.47,SE,135,57.0,0.0,89,0.00,,,0.00,VWS V13.01,2013-08-21 13:02:00,
2013-08-21 09:07:00,66.2,63.0,30.47,SE,135,57.0,0.0,89,0.00,,,0.00,VWS V13.01,2013-08-21 13:07:00,
2013-08-21 09:12:00,66.5,63.4,30.46,SE,135,57.0,0.0,89,0.00,,,0.00,VWS V13.01,2013-08-21 13:12:00,
2013-08-21 09:17:00,66.9,63.8,30.47,SE,135,57.0,0.0,89,0.00,,,0.00,VWS V13.01,2013-08-21 13:17:00,
2013-08-21 09:22:00,67.4,64.2,30.47,SE,135,57.0,0.0,89,0.00,,,0.00,VWS V13.01,2013-08-21 13:22:00,
2013-08-21 09:27:00,67.6,64.4,30.47,SE,135,57.0,0.0,89,0.00,,,0.00,VWS V13.01,2013-08-21 13:27:00,
2013-08-21 09:32:00,67.8,64.7,30.48,SE,135,57.0,0.0,89,0.00,,,0.00,VWS V13.01,2013-08-21 13:32:00,
2013-08-21 09:37:00,68.1,64.7,30.48,WSW,248,57.0,0.0,89,0.00,,,0.00,VWS V13.01,2013-08-21 13:37:00,
2013-08-21 09:42:00,68.1,64.9,30.48,WSW,248,57.0,0.0,89,0.00,,,0.00,VWS V13.01,2013-08-21 13:42:00,
2013-08-21 09:47:00,68.3,65.1,30.48,WSW,248,57.0,0.0,89,0.00,,,0.00,VWS V13.01,2013-08-21 13:47:00,
2013-08-21 09:52:00,68.5,65.1,30.48,West,270,57.0,0.0,89,0.00,,,0.00,VWS V13.01,2013-08-21 13:52:00,
2013-08-21 09:57:00,68.7,65.3,30.48,West,270,57.0,0.0,89,0.00,,,0.00,VWS V13.01,2013-08-21 13:57:00,
2013-08-21 10:02:00,68.9,65.6,30.48,West,270,57.0,0.0,89,0.00,,,0.00,VWS V13.01,2013-08-21 14:02:00,
2013-08-21 10:07:00,69.4,66.0,30.48,NW,315,57.0,0.0,89,0.00,,,0.00,VWS V13.01,2013-08-21 14:07:00,
2013-08-21 10:12:00,69.6,66.2,30.48,NW,315,57.0,0.0,89,0.00,,,0.00,VWS V13.01,2013-08-21 14:12:00,
2013-08-21 10:17:00,70.1,66.5,30.48,WNW,292,57.0,0.0,89,0.00,,,0.00,VWS V13.01,2013-08-21 14:17:00,
2013-08-21 10:22:00,70.3,66.8,30.48,North,0,57.0,0.0,88,0.00,,,0.00,VWS V13.01,2013-08-21 14:22:00,
2013-08-21 10:27:00,70.7,67.0,30.48,West,270,57.0,0.0,88,0.00,,,0.00,VWS V13.01,2013-08-21 14:27:00,
2013-08-21 10:32:00,70.8,66.7,30.48,WSW,248,0.8,0.0,87,0.00,,,0.00,VWS V13.01,2013-08-21 14:32:00,
2013-08-21 10:37:00,70.8,67.1,30.48,WNW,292,2.0,0.0,87,0.00,,,0.00,VWS V13.01,2013-08-21 14:37:00,
2013-08-21 10:42:00,71.2,67.3,30.48,West,270,2.0,0.0,87,0.00,,SCT020,0.00,VWS V13.01,2013-08-21 14:42:00,
2013-08-21 10:47:00,71.4,67.0,30.48,WSW,248,1.3,0.0,86,0.00,,SCT020,0.00,VWS V13.01,2013-08-21 14:47:00,
2013-08-21 10:52:00,71.7,67.3,30.48,SSE,158,57.0,0.0,86,0.00,,SCT020,0.00,VWS V13.01,2013-08-21 14:52:00,
2013-08-21 10:57:00,71.9,67.3,30.48,North,0,57.0,0.0,86,0.00,,SCT020,0.00,VWS V13.01,2013-08-21 14:57:00,
2013-08-21 11:02:00,72.5,67.5,30.48,SSE,158,0.6,0.0,85,0.00,,BKN020,0.00,VWS V13.01,2013-08-21 15:02:00,
2013-08-21 11:07:00,72.8,67.5,30.48,West,270,2.6,0.0,84,0.00,,BKN020,0.00,VWS V13.01,2013-08-21 15:07:00,
2013-08-21 11:12:00,73.0,67.5,30.48,WSW,248,2.9,0.0,83,0.00,,BKN020,0.00,VWS V13.01,2013-08-21 15:12:00,
2013-08-21 11:17:00,73.2,67.4,30.48,SE,135,5.5,0.0,82,0.00,,BKN020,0.00,VWS V13.01,2013-08-21 15:17:00,
2013-08-21 11:22:00,73.2,67.6,30.48,WNW,292,3.1,0.0,82,0.00,,BKN020,0.00,VWS V13.01,2013-08-21 15:22:00,
2013-08-21 11:27:00,73.5,67.6,30.48,West,270,3.1,0.0,82,0.00,,BKN020,0.00,VWS V13.01,2013-08-21 15:27:00,
2013-08-21 11:32:00,73.5,67.7,30.48,WSW,248,0.6,0.0,82,0.00,,BKN020,0.00,VWS V13.01,2013-08-21 15:32:00,
2013-08-21 11:37:00,73.7,68.1,30.48,North,0,57.0,0.0,83,0.00,,BKN020,0.00,VWS V13.01,2013-08-21 15:37:00,
2013-08-21 11:43:00,74.1,68.1,30.48,SW,225,2.4,0.0,82,0.00,,OVC016,0.00,VWS V13.01,2013-08-21 15:43:00,
2013-08-21 11:48:00,74.1,68.4,30.48,WNW,292,2.4,0.0,82,0.00,,OVC016,0.00,VWS V13.01,2013-08-21 15:48:00,
2013-08-21 11:53:00,74.4,68.2,30.48,NNW,338,1.3,0.0,81,0.00,,OVC016,0.00,VWS V13.01,2013-08-21 15:53:00,
2013-08-21 11:58:00,74.4,68.2,30.48,West,270,4.4,0.0,81,0.00,,OVC016,0.00,VWS V13.01,2013-08-21 15:58:00,
2013-08-21 12:03:00,74.4,68.6,30.47,WNW,292,4.4,0.0,81,0.00,,OVC018,0.00,VWS V13.01,2013-08-21 16:03:00,
2013-08-21 12:08:00,75.3,68.2,30.47,SE,135,1.1,0.0,80,0.00,,OVC018,0.00,VWS V13.01,2013-08-21 16:08:00,
2013-08-21 12:13:00,75.7,69.3,30.47,SSE,158,1.1,0.0,81,0.00,,OVC018,0.00,VWS V13.01,2013-08-21 16:13:00,
2013-08-21 12:18:00,76.2,69.2,30.46,WSW,248,0.4,0.0,79,0.00,,OVC018,0.00,VWS V13.01,2013-08-21 16:18:00,
2013-08-21 12:23:00,76.6,69.8,30.46,SW,225,0.4,0.0,79,0.00,,OVC018,0.00,VWS V13.01,2013-08-21 16:23:00,
2013-08-21 12:28:00,76.8,69.7,30.46,West,270,1.5,0.0,79,0.00,,OVC018,0.00,VWS V13.01,2013-08-21 16:28:00,
2013-08-21 12:33:00,77.3,69.5,30.46,SSE,158,2.2,0.0,77,0.00,,OVC018,0.00,VWS V13.01,2013-08-21 16:33:00,
2013-08-21 12:38:00,77.1,69.3,30.46,South,180,2.2,0.0,77,0.00,,OVC018,0.00,VWS V13.01,2013-08-21 16:38:00,
2013-08-21 12:43:00,77.1,69.5,30.46,South,180,4.2,0.0,77,0.00,,BKN036,0.00,VWS V13.01,2013-08-21 16:43:00,
2013-08-21 12:48:00,77.1,69.3,30.46,WNW,292,3.3,0.0,77,0.00,,BKN036,0.00,VWS V13.01,2013-08-21 16:48:00,
2013-08-21 12:53:00,77.3,69.7,30.46,SE,135,2.2,0.0,77,0.00,,BKN036,0.00,VWS V13.01,2013-08-21 16:53:00,
2013-08-21 12:58:00,77.7,69.9,30.45,North,0,57.0,0.0,76,0.00,,BKN036,0.00,VWS V13.01,2013-08-21 16:58:00,
2013-08-21 13:03:00,77.9,69.8,30.45,South,180,1.3,0.0,76,0.00,,SCT020,0.00,VWS V13.01,2013-08-21 17:03:00,
2013-08-21 13:08:00,78.0,69.8,30.44,WSW,248,2.2,0.0,76,0.00,,SCT020,0.00,VWS V13.01,2013-08-21 17:08:00,
2013-08-21 13:13:00,78.4,69.8,30.44,SSE,158,0.6,0.0,75,0.00,,SCT020,0.00,VWS V13.01,2013-08-21 17:13:00,
2013-08-21 13:18:00,78.4,69.8,30.44,WSW,248,0.8,0.0,74,0.00,,SCT020,0.00,VWS V13.01,2013-08-21 17:18:00,
2013-08-21 13:23:00,78.4,69.0,30.43,WSW,248,2.4,0.0,74,0.00,,SCT020,0.00,VWS V13.01,2013-08-21 17:23:00,
2013-08-21 13:28:00,78.0,69.1,30.44,SE,135,4.6,0.0,73,0.00,,SCT020,0.00,VWS V13.01,2013-08-21 17:28:00,
2013-08-21 13:33:00,78.0,69.4,30.44,WSW,248,4.6,0.0,73,0.00,,SCT020,0.00,VWS V13.01,2013-08-21 17:33:00,
2013-08-21 13:38:00,78.2,69.8,30.44,SSE,158,0.6,0.0,75,0.00,,SCT020,0.00,VWS V13.01,2013-08-21 17:38:00,
2013-08-21 13:43:00,78.6,69.6,30.44,West,270,4.0,0.0,75,0.00,,CLR,0.00,VWS V13.01,2013-08-21 17:43:00,
2013-08-21 13:48:00,78.6,69.0,30.44,SW,225,4.0,0.0,75,0.00,,CLR,0.00,VWS V13.01,2013-08-21 17:48:00,
2013-08-21 13:53:00,78.6,69.0,30.44,SSW,202,5.3,0.0,73,0.00,,CLR,0.00,VWS V13.01,2013-08-21 17:53:00,
2013-08-21 13:58:00,78.4,69.0,30.44,SSE,158,0.6,0.0,73,0.00,,CLR,0.00,VWS V13.01,2013-08-21 17:58:00,
2013-08-21 14:03:00,78.4,68.8,30.44,South,180,57.0,0.0,73,0.00,,SCT031,0.00,VWS V13.01,2013-08-21 18:03:00,
2013-08-21 14:08:00,78.6,69.5,30.43,South,180,1.5,0.0,73,0.00,,SCT031,0.00,VWS V13.01,2013-08-21 18:08:00,
2013-08-21 14:13:00,78.6,69.3,30.43,SSW,202,5.5,0.0,73,0.00,,SCT031,0.00,VWS V13.01,2013-08-21 18:13:00,
2013-08-21 14:18:00,78.6,69.1,30.43,SSW,202,57.0,0.0,73,0.00,,SCT031,0.00,VWS V13.01,2013-08-21 18:18:00,
2013-08-21 14:23:00,79.1,69.1,30.43,WNW,292,1.1,0.0,71,0.00,,SCT031,0.00,VWS V13.01,2013-08-21 18:23:00,
2013-08-21 14:28:00,79.3,68.9,30.43,WSW,248,3.5,0.0,71,0.00,,SCT031,0.00,VWS V13.01,2013-08-21 18:28:00,
2013-08-21 14:33:00,79.3,69.1,30.43,WSW,248,1.3,0.0,71,0.00,,BKN034,0.00,VWS V13.01,2013-08-21 18:33:00,
2013-08-21 14:38:00,79.1,69.1,30.43,SSW,202,1.3,0.0,71,0.00,,BKN034,0.00,VWS V13.01,2013-08-21 18:38:00,
2013-08-21 14:43:00,79.1,69.1,30.43,SE,135,1.3,0.0,71,0.00,,SCT055,0.00,VWS V13.01,2013-08-21 18:43:00,
2013-08-21 14:48:00,79.1,68.9,30.43,North,0,57.0,0.0,71,0.00,,SCT055,0.00,VWS V13.01,2013-08-21 18:48:00,
2013-08-21 14:53:00,79.1,69.1,30.42,SSW,202,1.5,0.0,72,0.00,,SCT055,0.00,VWS V13.01,2013-08-21 18:53:00,
2013-08-21 14:58:00,79.1,69.1,30.42,SW,225,1.5,0.0,72,0.00,,SCT055,0.00,VWS V13.01,2013-08-21 18:58:00,
2013-08-21 15:03:00,78.9,69.2,30.42,SSW,202,57.0,0.0,72,0.00,,SCT045,0.00,VWS V13.01,2013-08-21 19:03:00,
2013-08-21 15:08:00,78.4,69.0,30.41,West,270,3.3,0.0,72,0.00,,SCT045,0.00,VWS V13.01,2013-08-21 19:08:00,
2013-08-21 15:13:00,78.4,68.7,30.41,West,270,1.7,0.0,72,0.00,,SCT045,0.00,VWS V13.01,2013-08-21 19:13:00,
2013-08-21 15:18:00,78.4,68.8,30.41,NW,315,57.0,0.0,72,0.00,,SCT045,0.00,VWS V13.01,2013-08-21 19:18:00,
2013-08-21 15:23:00,77.5,68.8,30.41,NW,315,2.4,0.0,74,0.00,,SCT045,0.00,VWS V13.01,2013-08-21 19:23:00,
2013-08-21 15:28:00,77.5,68.6,30.41,West,270,2.0,0.0,74,0.00,,SCT045,0.00,VWS V13.01,2013-08-21 19:28:00,
2013-08-21 15:33:00,77.7,68.6,30.41,WSW,248,3.1,0.0,74,0.00,,BKN110,0.00,VWS V13.01,2013-08-21 19:33:00,
2013-08-21 15:38:00,77.7,68.8,30.41,WSW,248,2.9,0.0,74,0.00,,BKN110,0.00,VWS V13.01,2013-08-21 19:38:00,
2013-08-21 15:43:00,77.7,68.4,30.40,SW,225,0.8,0.0,73,0.00,,BKN110,0.00,VWS V13.01,2013-08-21 19:43:00,
2013-08-21 15:48:00,77.7,68.6,30.41,NW,315,1.1,0.0,73,0.00,,BKN110,0.00,VWS V13.01,2013-08-21 19:48:00,
2013-08-21 15:53:00,77.5,68.6,30.41,WSW,248,2.6,0.0,74,0.00,,BKN110,0.00,VWS V13.01,2013-08-21 19:53:00,
2013-08-21 15:58:00,77.5,68.8,30.41,North,0,57.0,0.0,74,0.00,,BKN110,0.00,VWS V13.01,2013-08-21 19:58:00,
2013-08-21 16:03:00,77.5,69.0,30.40,WNW,292,57.0,0.0,74,0.00,,SCT040,0.00,VWS V13.01,2013-08-21 20:03:00,
2013-08-21 16:08:00,77.1,69.3,30.40,NW,315,4.0,0.0,76,0.00,,SCT040,0.00,VWS V13.01,2013-08-21 20:08:00,
2013-08-21 16:13:00,77.1,69.0,30.39,WNW,292,0.8,0.0,77,0.00,,SCT040,0.00,VWS V13.01,2013-08-21 20:13:00,
2013-08-21 16:18:00,77.1,69.1,30.39,SW,225,0.4,0.0,77,0.00,,SCT040,0.00,VWS V13.01,2013-08-21 20:18:00,
2013-08-21 16:23:00,77.0,69.2,30.39,West,270,2.0,0.0,77,0.00,,SCT040,0.00,VWS V13.01,2013-08-21 20:23:00,
2013-08-21 16:28:00,77.0,69.2,30.39,WNW,292,57.0,0.0,77,0.00,,SCT040,0.00,VWS V13.01,2013-08-21 20:28:00,
2013-08-21 16:33:00,76.8,69.2,30.40,WNW,292,57.0,0.0,77,0.00,,BKN047,0.00,VWS V13.01,2013-08-21 20:33:00,
2013-08-21 16:38:00,76.8,69.1,30.40,WNW,292,1.1,0.0,77,0.00,,BKN047,0.00,VWS V13.01,2013-08-21 20:38:00,
2013-08-21 16:43:00,76.8,69.1,30.40,North,0,1.1,0.0,77,0.00,,SCT047,0.00,VWS V13.01,2013-08-21 20:43:00,
2013-08-21 16:48:00,76.8,69.1,30.40,NNW,338,57.0,0.0,77,0.00,,SCT047,0.00,VWS V13.01,2013-08-21 20:48:00,
2013-08-21 16:53:00,76.8,69.1,30.40,NW,315,4.6,0.0,77,0.00,,SCT047,0.00,VWS V13.01,2013-08-21 20:53:00,
2013-08-21 16:58:00,76.8,68.7,30.41,NW,315,4.6,0.0,77,0.00,,SCT047,0.00,VWS V13.01,2013-08-21 20:58:00,
2013-08-21 17:03:00,76.8,68.6,30.41,NW,315,57.0,0.0,77,0.00,,CLR,0.00,VWS V13.01,2013-08-21 21:03:00,
2013-08-21 17:08:00,75.9,68.4,30.40,NNE,22,57.0,0.0,78,0.00,,CLR,0.00,VWS V13.01,2013-08-21 21:08:00,
2013-08-21 17:13:00,75.9,68.3,30.40,ENE,68,0.6,0.0,78,0.00,,CLR,0.00,VWS V13.01,2013-08-21 21:13:00,
2013-08-21 17:18:00,75.9,68.3,30.40,NE,45,0.6,0.0,78,0.00,,CLR,0.00,VWS V13.01,2013-08-21 21:18:00,
2013-08-21 17:23:00,75.9,68.1,30.40,North,0,0.6,0.0,78,0.00,,CLR,0.00,VWS V13.01,2013-08-21 21:23:00,
2013-08-21 17:28:00,75.9,67.5,30.39,NNW,338,0.6,0.0,78,0.00,,CLR,0.00,VWS V13.01,2013-08-21 21:28:00,
2013-08-21 17:33:00,74.3,67.5,30.39,WNW,292,0.6,0.0,80,0.00,,CLR,0.00,VWS V13.01,2013-08-21 21:33:00,
2013-08-21 17:38:00,73.7,67.5,30.39,WNW,292,0.6,0.0,81,0.02,,CLR,0.02,VWS V13.01,2013-08-21 21:38:00,
2013-08-21 17:43:00,73.5,67.4,30.39,West,270,57.0,0.0,81,0.02,,SCT080,0.02,VWS V13.01,2013-08-21 21:43:00,
2013-08-21 17:48:00,73.5,67.2,30.39,West,270,57.0,0.0,81,0.02,,SCT080,0.02,VWS V13.01,2013-08-21 21:48:00,
2013-08-21 17:53:00,73.5,67.2,30.40,WSW,248,57.0,0.0,81,0.02,,SCT080,0.02,VWS V13.01,2013-08-21 21:53:00,
2013-08-21 17:58:00,73.5,67.2,30.39,SW,225,57.0,0.0,81,0.02,,SCT080,0.02,VWS V13.01,2013-08-21 21:58:00,
2013-08-21 18:03:00,72.3,67.0,30.39,North,0,57.0,0.0,84,0.02,,BKN060,0.02,VWS V13.01,2013-08-21 22:03:00,
2013-08-21 18:08:00,72.3,66.8,30.39,NW,315,57.0,0.0,84,0.02,,BKN060,0.02,VWS V13.01,2013-08-21 22:08:00,
2013-08-21 18:13:00,71.9,66.6,30.40,NW,315,57.0,0.0,84,0.02,,BKN060,0.02,VWS V13.01,2013-08-21 22:13:00,
2013-08-21 18:18:00,71.9,66.6,30.40,NW,315,57.0,0.0,84,0.02,,BKN060,0.02,VWS V13.01,2013-08-21 22:18:00,
2013-08-21 18:23:00,71.9,66.9,30.40,NW,315,57.0,0.0,84,0.02,,BKN060,0.02,VWS V13.01,2013-08-21 22:23:00,
2013-08-21 18:28:00,71.9,66.9,30.41,WNW,292,1.7,0.0,85,0.02,,BKN060,0.02,VWS V13.01,2013-08-21 22:28:00,
2013-08-21 18:33:00,71.7,66.7,30.40,North,0,57.0,0.0,85,0.00,,OVC090,0.02,VWS V13.01,2013-08-21 22:33:00,
2013-08-21 18:38:00,71.4,66.3,30.41,NW,315,57.0,0.0,85,0.00,,OVC090,0.02,VWS V13.01,2013-08-21 22:38:00,
2013-08-21 18:43:00,71.4,66.0,30.40,NW,315,57.0,0.0,85,0.00,,BKN120,0.02,VWS V13.01,2013-08-21 22:43:00,
2013-08-21 18:49:00,71.4,66.3,30.39,NW,315,57.0,0.0,85,0.00,,BKN120,0.02,VWS V13.01,2013-08-21 22:49:00,
2013-08-21 18:54:00,70.5,66.1,30.39,NW,315,57.0,0.0,86,0.00,,BKN120,0.02,VWS V13.01,2013-08-21 22:54:00,
2013-08-21 18:59:00,70.5,66.1,30.39,NNW,338,57.0,0.0,86,0.00,,BKN120,0.02,VWS V13.01,2013-08-21 22:59:00,
2013-08-21 19:04:00,70.5,66.1,30.38,NNW,338,57.0,0.0,86,0.00,,OVC120,0.02,VWS V13.01,2013-08-21 23:04:00,
2013-08-21 19:09:00,70.5,65.9,30.38,North,0,57.0,0.0,86,0.02,,OVC120,0.04,VWS V13.01,2013-08-21 23:09:00,
2013-08-21 19:14:00,70.5,65.9,30.38,North,0,57.0,0.0,86,0.02,,OVC120,0.04,VWS V13.01,2013-08-21 23:14:00,
2013-08-21 19:19:00,70.3,65.9,30.38,North,0,57.0,0.0,86,0.02,,OVC120,0.04,VWS V13.01,2013-08-21 23:19:00,
2013-08-21 19:24:00,70.3,65.7,30.38,North,0,57.0,0.0,86,0.02,,OVC120,0.04,VWS V13.01,2013-08-21 23:24:00,
2013-08-21 19:29:00,69.8,65.9,30.38,North,0,57.0,0.0,86,0.02,,OVC120,0.04,VWS V13.01,2013-08-21 23:29:00,
2013-08-21 19:34:00,69.8,65.2,30.38,North,0,57.0,0.0,86,0.02,,SCT120,0.04,VWS V13.01,2013-08-21 23:34:00,
2013-08-21 19:39:00,69.8,65.0,30.39,North,0,57.0,0.0,86,0.02,,SCT120,0.04,VWS V13.01,2013-08-21 23:39:00,
2013-08-21 19:44:00,69.4,64.6,30.39,North,0,57.0,0.0,86,0.02,,SCT120,0.04,VWS V13.01,2013-08-21 23:44:00,
2013-08-21 19:49:00,69.4,64.7,30.40,NNW,338,57.0,0.0,86,0.02,,SCT120,0.04,VWS V13.01,2013-08-21 23:49:00,
2013-08-21 19:54:00,69.4,64.5,30.40,North,0,57.0,0.0,86,0.02,,SCT120,0.04,VWS V13.01,2013-08-21 23:54:00,
2013-08-21 19:59:00,68.5,64.5,30.39,North,0,57.0,0.0,87,0.02,,SCT120,0.04,VWS V13.01,2013-08-21 23:59:00,
2013-08-21 20:04:00,68.5,64.3,30.39,North,0,57.0,0.0,87,0.00,,CLR,0.04,VWS V13.01,2013-08-22 00:04:00,
2013-08-21 20:09:00,68.5,64.3,30.39,North,0,57.0,0.0,87,0.00,,CLR,0.04,VWS V13.01,2013-08-22 00:09:00,
2013-08-21 20:14:00,68.5,64.1,30.39,North,0,57.0,0.0,87,0.00,,CLR,0.04,VWS V13.01,2013-08-22 00:14:00,
2013-08-21 20:19:00,68.1,64.1,30.39,North,0,57.0,0.0,87,0.00,,CLR,0.04,VWS V13.01,2013-08-22 00:19:00,
2013-08-21 20:24:00,68.1,64.0,30.38,North,0,57.0,0.0,87,0.00,,CLR,0.04,VWS V13.01,2013-08-22 00:24:00,
2013-08-21 20:29:00,68.1,63.8,30.39,North,0,57.0,0.0,87,0.00,,CLR,0.04,VWS V13.01,2013-08-22 00:29:00,
2013-08-21 20:34:00,67.8,63.8,30.39,North,0,57.0,0.0,87,0.00,,CLR,0.04,VWS V13.01,2013-08-22 00:34:00,
2013-08-21 20:39:00,67.8,63.8,30.39,North,0,57.0,0.0,87,0.00,,CLR,0.04,VWS V13.01,2013-08-22 00:39:00,
2013-08-21 20:44:00,67.8,63.8,30.39,North,0,57.0,0.0,87,0.00,,CLR,0.04,VWS V13.01,2013-08-22 00:44:00,
2013-08-21 20:49:00,67.8,63.6,30.39,North,0,57.0,0.0,87,0.00,,CLR,0.04,VWS V13.01,2013-08-22 00:49:00,
2013-08-21 20:54:00,67.6,63.6,30.39,North,0,57.0,0.0,87,0.00,,CLR,0.04,VWS V13.01,2013-08-22 00:54:00,
2013-08-21 20:59:00,67.6,63.6,30.38,North,0,57.0,0.0,87,0.00,,CLR,0.04,VWS V13.01,2013-08-22 00:59:00,
2013-08-21 21:05:00,67.6,63.6,30.38,North,0,57.0,0.0,87,0.00,,CLR,0.04,VWS V13.01,2013-08-22 01:05:00,
2013-08-21 21:10:00,67.6,63.6,30.38,North,0,57.0,0.0,88,0.00,,CLR,0.04,VWS V13.01,2013-08-22 01:10:00,
2013-08-21 21:15:00,67.2,63.6,30.39,North,0,57.0,0.0,88,0.00,,CLR,0.04,VWS V13.01,2013-08-22 01:15:00,
2013-08-21 21:20:00,67.2,63.7,30.40,North,0,57.0,0.0,88,0.00,,CLR,0.04,VWS V13.01,2013-08-22 01:20:00,
2013-08-21 21:25:00,67.2,63.7,30.40,North,0,57.0,0.0,88,0.00,,CLR,0.04,VWS V13.01,2013-08-22 01:25:00,
2013-08-21 21:30:00,67.2,63.7,30.41,North,0,57.0,0.0,88,0.00,,CLR,0.04,VWS V13.01,2013-08-22 01:30:00,
2013-08-21 21:35:00,67.1,63.5,30.41,North,0,57.0,0.0,88,0.00,,-RA,0.04,VWS V13.01,2013-08-22 01:35:00,
2013-08-21 21:40:00,67.1,63.4,30.41,North,0,57.0,0.0,88,0.00,,-RA,0.04,VWS V13.01,2013-08-22 01:40:00,
2013-08-21 21:45:00,67.1,63.4,30.41,North,0,57.0,0.0,88,0.00,,-RA,0.04,VWS V13.01,2013-08-22 01:45:00,
2013-08-21 21:50:00,67.1,63.4,30.41,North,0,57.0,0.0,88,0.00,,-RA,0.04,VWS V13.01,2013-08-22 01:50:00,
2013-08-21 21:55:00,67.1,63.4,30.41,North,0,57.0,0.0,88,0.00,,-RA,0.04,VWS V13.01,2013-08-22 01:55:00,
2013-08-21 22:00:00,66.9,63.2,30.41,North,0,57.0,0.0,88,0.00,,-RA,0.00,VWS V13.01,2013-08-22 02:00:00,
2013-08-21 22:05:00,66.9,63.0,30.41,North,0,57.0,0.0,88,0.00,,-RA,0.04,VWS V13.01,2013-08-22 02:05:00,
2013-08-21 22:10:00,66.7,63.2,30.41,NNE,22,57.0,0.0,88,0.00,,-RA,0.04,VWS V13.01,2013-08-22 02:10:00,
2013-08-21 22:15:00,66.9,63.2,30.41,NNE,22,57.0,0.0,88,0.00,,-RA,0.04,VWS V13.01,2013-08-22 02:15:00,
2013-08-21 22:20:00,66.9,63.0,30.41,NNW,338,57.0,0.0,88,0.00,,-RA,0.04,VWS V13.01,2013-08-22 02:20:00,
2013-08-21 22:25:00,66.9,63.2,30.42,SE,135,57.0,0.0,88,0.02,,-RA,0.06,VWS V13.01,2013-08-22 02:25:00,
2013-08-21 22:30:00,66.9,63.2,30.43,NW,315,0.8,0.0,88,0.08,,-RA,0.12,VWS V13.01,2013-08-22 02:30:00,
2013-08-21 22:35:00,66.9,63.6,30.43,NNE,22,8.0,0.0,88,0.32,,-RA,0.37,VWS V13.01,2013-08-22 02:35:00,
2013-08-21 22:40:00,66.5,63.2,30.44,NW,315,2.0,0.0,88,0.43,,BKN110,0.47,VWS V13.01,2013-08-22 02:40:00,
2013-08-21 22:45:00,66.5,62.3,30.44,WNW,292,2.0,0.0,89,0.44,,BKN110,0.49,VWS V13.01,2013-08-22 02:45:00,
2013-08-21 22:50:00,65.6,61.8,30.43,WNW,292,2.0,0.0,88,0.44,,BKN110,0.49,VWS V13.01,2013-08-22 02:50:00,
2013-08-21 22:55:00,65.3,61.7,30.43,WNW,292,2.0,0.0,88,0.47,,BKN110,0.51,VWS V13.01,2013-08-22 02:55:00,
2013-08-21 23:01:00,65.3,61.5,30.42,WNW,292,2.0,0.0,88,0.47,,BKN110,0.51,VWS V13.01,2013-08-22 03:01:00,
2013-08-21 23:06:00,64.9,61.5,30.42,WNW,292,2.0,0.0,88,0.47,, +RA,0.51,VWS V13.01,2013-08-22 03:06:00,
2013-08-21 23:11:00,64.7,61.1,30.42,WNW,292,2.0,0.0,88,0.47,, +RA,0.51,VWS V13.01,2013-08-22 03:11:00,
2013-08-21 23:16:00,64.5,61.1,30.41,WNW,292,2.0,0.0,88,0.47,, +RA,0.51,VWS V13.01,2013-08-22 03:16:00,
2013-08-21 23:21:00,64.2,60.9,30.41,WNW,292,2.0,0.0,88,0.47,, +RA,0.51,VWS V13.01,2013-08-22 03:21:00,
2013-08-21 23:26:00,64.0,60.9,30.41,WNW,292,2.0,0.0,89,0.44,, +RA,0.51,VWS V13.01,2013-08-22 03:26:00,
2013-08-21 23:31:00,64.0,60.7,30.42,WNW,292,2.0,0.0,89,0.26,, +RA,0.51,VWS V13.01,2013-08-22 03:31:00,
2013-08-21 23:36:00,63.8,60.7,30.42,WNW,292,2.0,0.0,89,0.12,, +RA,0.51,VWS V13.01,2013-08-22 03:36:00,
2013-08-21 23:41:00,63.6,60.3,30.42,WNW,292,2.0,0.0,89,0.02,,SCT080,0.51,VWS V13.01,2013-08-22 03:41:00,
2013-08-21 23:46:00,63.5,60.2,30.41,WNW,292,2.0,0.0,89,0.02,,SCT080,0.51,VWS V13.01,2013-08-22 03:46:00,
2013-08-21 23:51:00,63.3,60.2,30.41,WNW,292,2.0,0.0,89,0.02,,SCT080,0.51,VWS V13.01,2013-08-22 03:51:00,
2013-08-21 23:56:00,63.1,59.8,30.41,WNW,292,2.0,0.0,89,0.00,,SCT080,0.51,VWS V13.01,2013-08-22 03:56:00,